Dewpoint
9 9 9 9 9 8 8 8 7 6 1 -1 -3 -1 2 5 5 5 4 4 4 4 4 4 5 4 5 6 6 6 6 6 6 6 5 6 5 6 6 6 5 4 3
9 9 8 9 9 9 8 8 8 8 5 1 -1 -1 3 4 5 5 4 4 4 6 6 5 6 5 5 6 6 6 6 6 7 7 7 6 5 6 7 6 5 3 3
8 9 9 8 9 9 8 8 9 8 8 6 3 5 3 4 4 3 4 4 4 5 5 7 7 6 7 6 6 6 7 6 7 7 7 7 6 5 6 5 4 4 3
8 9 9 9 9 9 8 9 9 9 9 9 8 7 7 8 7 7 6 7 6 5 6 6 6 8 7 7 8 7 6 6 7 7 6 7 6 6 6 6 5 4 3
8 7 8 9 9 10 10 10 8 8 9 9 9 8 8 8 8 7 7 7 5 6 7 8 8 7 7 6 7 6 5 6 7 7 6 6 6 6 6 5 5 4 4
9 8 8 8 9 9 9 9 9 9 8 8 9 9 8 8 8 7 7 7 8 8 8 7 7 7 7 7 8 6 7 8 6 7 7 6 7 6 6 5 4 2 1
9 9 9 8 8 9 10 9 9 9 9 9 9 8 8 8 7 7 7 8 8 8 8 8 8 8 8 7 7 8 7 8 7 7 7 6 6 5 4 3 2 0 -1
8 9 10 10 9 9 10 10 9 9 9 9 9 9 9 8 8 8 8 8 8 8 8 8 8 8 8 8 8 7 7 7 7 6 5 4 3 2 1 1 0 -1 -3
8 8 9 10 10 10 9 9 10 10 9 9 9 9 9 9 9 8 8 8 8 8 8 8 8 8 8 8 7 7 6 5 4 3 2 1 1 0 -1 -2 -3 -5 -7
4 8 8 9 9 10 10 10 10 10 9 10 9 9 9 9 9 9 9 8 8 7 7 8 8 8 7 7 6 5 3 2 0 -1 -2 -2 -2 -3 -2 -5 -10 -19 -26
6 4 8 8 8 9 9 10 10 10 10 9 9 9 9 9 9 9 9 9 8 9 8 8 7 7 6 5 3 1 0 -0 -2 -3 -3 -5 -6 -10 -21 -25 -20 -17 -13
8 8 7 9 9 8 9 9 10 10 10 10 10 9 9 9 9 9 9 9 8 7 7 5 4 3 2 0 -1 -2 -2 -3 -4 -4 -8 -12 -10 -8 -8 -8 -8 -13 -18
7 7 8 9 8 8 9 9 9 9 10 10 9 9 9 8 8 8 7 8 8 5 3 2 -0 -2 -3 -3 -4 -4 -4 -4 -6 -8 -8 -8 -9 -9 -9 -10 -10 -9 -9
6 7 7 8 9 9 9 9 9 9 9 9 9 8 6 1 2 4 2 0 1 0 -1 -3 -4 -4 -4 -4 -4 -4 -6 -7 -7 -8 -9 -9 -9 -10 -10 -10 -11 -11 -12
4 4 5 4 4 5 6 6 5 4 4 6 6 2 3 1 -4 -3 -3 -3 -2 -4 -5 -5 -5 -5 -6 -7 -8 -8 -8 -9 -9 -9 -10 -11 -11 -12 -12 -12 -13 -13 -13
3 4 3 3 1 0 -0 -1 -2 -2 -2 -2 -1 -0 -3 -3 -3 -4 -5 -5 -6 -6 -6 -6 -7 -8 -9 -9 -10 -10 -11 -11 -11 -12 -12 -13 -13 -14 -14 -15 -15 -15 -15
1 1 1 1 1 -0 -0 -2 -4 -6 -5 -6 -6 -5 -5 -6 -6 -6 -7 -7 -8 -7 -8 -9 -9 -9 -10 -10 -11 -11 -12 -12 -13 -14 -14 -15 -15 -16 -16 -16 -16 -17 -17
-1 -1 -1 -2 -3 -5 -5 -6 -7 -8 -9 -9 -9 -8 -8 -8 -8 -8 -8 -8 -9 -9 -9 -10 -11 -11 -12 -12 -12 -13 -13 -14 -15 -16 -16 -17 -17 -17 -18 -18 -18 -18 -18
-4 -5 -5 -5 -6 -6 -6 -8 -8 -9 -9 -10 -9 -9 -9 -9 -9 -10 -9 -9 -10 -11 -11 -12 -12 -12 -13 -14 -14 -15 -15 -16 -17 -17 -17 -17 -18 -19 -19 -19 -19 -19 -19
-7 -7 -8 -8 -8 -8 -8 -9 -9 -10 -10 -10 -11 -11 -10 -10 -10 -11 -11 -11 -12 -13 -13 -13 -14 -14 -15 -16 -16 -17 -17 -18 -18 -19 -19 -19 -19 -20 -20 -20 -20 -20 -20
-7 -8 -8 -8 -8 -9 -9 -9 -10 -10 -11 -11 -12 -12 -11 -11 -12 -12 -12 -13 -13 -14 -15 -15 -16 -17 -19 -20 -20 -19 -20 -20 -20 -20 -20 -20 -20 -21 -21 -21 -21 -21 -21
-8 -8 -8 -9 -10 -10 -10 -11 -11 -11 -12 -12 -13 -13 -13 -13 -14 -14 -15 -16 -17 -19 -20 -19 -19 -21 -23 -24 -25 -24 -21 -20 -20 -21 -22 -24 -23 -22 -21 -21 -21 -21 -22
-10 -10 -11 -11 -11 -12 -12 -12 -13 -13 -14 -14 -14 -15 -15 -16 -17 -19 -20 -20 -23 -26 -26 -26 -25 -25 -25 -26 -25 -24 -23 -23 -25 -26 -26 -26 -25 -22 -22 -22 -22 -22 -22
-12 -12 -12 -13 -13 -14 -14 -14 -15 -15 -16 -16 -17 -17 -17 -18 -20 -22 -24 -24 -24 -24 -25 -26 -25 -25 -27 -27 -27 -27 -27 -26 -26 -26 -26 -26 -25 -24 -23 -23 -22 -22 -22
-19 -19 -18 -17 -17 -18 -18 -18 -18 -17 -17 -17 -18 -18 -18 -19 -20 -21 -24 -26 -27 -27 -26 -25 -26 -27 -27 -27 -27 -27 -26 -26 -26 -26 -26 -24 -23 -23 -23 -22 -22 -22 -22
-21 -19 -18 -18 -17 -17 -18 -18 -18 -18 -18 -19 -19 -19 -20 -21 -21 -22 -26 -26 -26 -27 -26 -26 -26 -26 -26 -26 -26 -26 -26 -26 -26 -25 -23 -23 -23 -22 -22 -22 -22 -22 -22
Wind_Speed
29 34 40 43 41 38 38 41 49 52 53 54 54 54 52 52 49 48 45 44 45 46 44 44 44 44 38 37 37 36 38 40 42 41 40 31 23 27 31 33 30 31 31
32 30 32 39 42 43 40 41 42 46 57 57 56 58 56 56 57 57 57 54 51 45 45 46 46 44 43 41 42 41 42 43 45 45 45 33 32 30 39 37 33 32 31
33 35 33 32 36 40 43 42 41 41 48 54 55 52 57 61 62 63 61 55 52 50 49 44 45 45 42 44 45 45 45 43 46 44 43 42 37 35 39 37 36 34 35
34 35 38 37 37 37 39 41 42 39 41 47 52 55 54 52 56 53 51 49 50 51 48 49 47 43 45 46 46 47 46 44 43 41 41 40 40 36 43 44 45 44 39
34 39 39 40 40 39 38 39 39 46 46 47 48 49 47 48 49 48 47 49 52 49 47 46 46 48 50 55 51 50 42 42 44 43 37 45 44 45 49 52 50 44 40
35 38 38 37 40 42 44 42 42 43 48 49 48 49 49 51 53 51 51 50 49 48 49 50 49 51 52 51 49 44 43 47 44 43 44 48 49 54 54 54 48 40 30
36 36 37 39 40 42 42 44 46 46 45 49 49 50 52 53 52 51 50 50 48 46 46 46 47 50 52 49 45 45 48 47 42 45 49 49 48 48 50 41 33 30 24
34 36 37 38 41 40 41 44 46 48 49 48 48 48 48 51 51 50 49 48 50 53 49 48 48 52 51 45 45 47 48 47 47 47 44 39 38 34 29 27 24 20 18
31 35 36 35 37 38 40 45 44 42 43 47 47 47 48 49 46 48 45 47 48 50 52 52 51 51 51 51 46 45 46 44 39 35 31 27 26 21 20 17 13 10 15
15 27 34 34 35 38 40 39 38 39 41 39 39 42 44 45 46 44 42 42 43 45 46 49 48 47 46 48 42 35 33 29 22 17 15 15 13 10 9 4 7 14 17
19 22 17 36 34 35 35 37 36 37 39 39 41 42 43 42 44 42 41 40 41 44 46 45 42 43 42 37 25 22 23 23 18 14 8 2 3 2 3 6 9 16 19
20 18 15 21 26 28 30 34 35 38 40 40 40 41 43 43 42 43 43 40 35 32 32 30 28 27 22 18 20 21 20 16 12 8 7 6 3 9 10 11 15 18 19
20 19 17 12 18 26 26 29 33 36 35 32 35 40 39 38 38 36 38 42 36 26 23 21 18 16 19 21 18 17 13 9 7 6 4 5 7 11 13 14 18 20 23
22 18 14 14 12 15 15 19 22 29 33 33 35 32 26 15 18 23 19 15 17 18 20 19 19 18 14 12 10 7 5 5 3 2 4 6 9 10 11 13 16 17 19
19 24 16 11 7 6 7 11 13 16 20 27 27 21 24 17 4 10 12 16 18 22 24 23 20 16 12 11 9 6 5 4 2 1 2 4 6 8 10 14 17 19 20
11 11 13 12 8 7 8 10 12 9 6 1 14 15 15 18 21 18 19 22 24 20 22 19 19 17 14 8 7 6 4 3 2 3 5 7 8 10 12 15 17 17 18
5 8 8 8 7 8 9 16 24 28 26 24 21 30 28 27 24 25 26 26 24 19 20 20 17 14 11 8 6 4 2 0 3 6 6 8 10 12 14 15 16 17 19
7 9 11 13 13 16 22 26 31 35 35 36 28 35 34 30 26 24 21 20 21 18 17 16 14 11 9 6 4 2 1 4 7 8 10 10 11 11 13 14 16 17 19
15 15 16 17 19 22 26 26 32 32 32 32 29 27 28 25 23 20 17 18 18 17 15 14 11 9 6 3 1 2 4 5 7 6 8 10 12 13 12 14 16 17 18
22 24 25 27 28 28 29 29 32 31 29 27 23 18 16 15 16 17 15 14 14 12 10 8 6 4 2 1 1 2 4 5 7 8 9 10 10 11 11 12 13 15 16
23 23 24 23 23 23 23 24 24 24 24 22 20 14 12 13 14 13 12 10 10 8 7 5 3 1 1 2 3 4 4 4 6 7 7 9 11 10 9 10 11 12 14
20 20 20 22 22 21 22 21 20 19 19 17 15 13 10 10 10 9 8 7 5 4 4 4 2 2 2 3 3 3 3 3 6 8 10 10 10 8 8 9 11 13 15
18 19 20 20 18 18 18 17 17 16 14 12 11 9 8 8 7 7 7 6 5 5 4 1 1 2 3 3 3 4 5 8 10 12 12 12 10 7 9 10 11 13 14
15 16 16 16 15 16 15 16 15 13 11 11 11 10 9 9 8 7 6 5 3 4 6 5 5 6 6 7 7 8 10 9 9 11 12 12 11 10 10 10 10 12 15
12 13 13 13 12 13 12 12 11 10 10 10 9 8 7 5 5 4 4 6 5 5 5 6 7 8 9 9 9 9 9 10 11 11 10 10 10 10 9 10 12 15 18
13 13 13 12 12 12 11 11 10 9 8 7 7 5 3 2 2 2 4 5 5 5 6 7 8 9 9 9 10 10 11 11 10 9 9 9 9 10 11 12 14 15 17
Wind_Direction
219 207 204 205 212 220 220 220 220 223 222 221 216 217 221 225 225 227 228 233 241 248 245 247 252 252 256 258 256 258 262 261 261 268 271 265 260 263 248 256 253 250 246
215 223 214 208 210 214 218 221 224 225 224 225 224 222 224 228 231 237 241 245 247 241 245 247 251 256 259 257 259 261 264 269 262 273 268 252 269 265 253 249 250 248 244
210 217 225 218 214 215 217 220 224 222 222 224 223 222 228 231 235 240 244 244 245 242 243 242 250 257 255 258 260 264 270 273 271 276 261 263 262 265 234 237 241 240 242
207 214 216 222 223 224 222 221 219 223 221 223 224 227 226 228 238 239 239 237 241 244 246 246 250 247 252 255 259 268 273 272 274 267 264 255 260 251 237 241 237 239 238
225 214 220 220 222 219 221 227 225 221 224 226 227 231 232 228 235 236 234 235 243 245 244 243 244 250 256 261 265 270 263 280 266 259 248 256 257 245 238 240 239 240 238
236 233 221 224 224 226 222 219 225 226 226 228 228 229 229 231 231 235 237 235 235 237 241 247 252 255 256 260 265 263 264 268 260 253 253 260 256 249 244 235 231 227 228
237 238 229 224 227 227 227 225 225 225 226 228 231 230 232 234 236 237 237 235 236 239 243 246 247 251 258 263 261 259 267 264 256 257 258 260 252 247 238 232 227 225 229
233 238 234 229 229 228 225 229 229 226 226 226 229 232 234 236 237 238 238 239 241 246 247 249 252 257 261 262 262 267 261 254 254 255 256 254 250 242 234 226 227 231 233
238 237 237 234 234 232 232 232 230 226 227 230 230 231 232 236 237 239 239 239 242 245 248 250 253 256 260 264 265 262 253 245 244 245 241 238 236 224 213 219 222 284 277
323 255 244 237 236 237 234 235 235 231 233 233 234 234 236 235 237 237 238 239 241 245 247 248 249 251 255 254 253 252 245 240 232 222 209 196 199 206 222 274 257 242 246
281 266 273 243 241 238 237 233 232 234 231 229 232 233 236 237 234 235 235 239 239 240 240 241 242 250 249 251 247 233 225 213 199 187 176 152 34 43 222 240 256 265 266
311 307 291 225 229 238 235 230 227 228 229 229 228 232 232 236 238 236 234 233 234 238 241 239 238 242 242 226 204 196 187 178 170 160 103 110 203 257 266 266 264 258 257
333 312 299 272 233 230 223 229 233 231 234 235 237 240 236 232 234 235 238 237 235 230 223 217 209 190 177 169 168 165 170 157 149 156 192 220 228 248 260 256 255 263 267
347 327 308 292 268 244 236 231 230 227 229 226 227 228 220 218 224 217 210 192 181 187 181 165 155 151 146 154 158 157 128 96 113 184 222 246 255 266 282 286 290 290 287
14 358 332 322 298 250 224 236 239 237 231 228 220 222 215 197 209 123 155 151 144 142 135 135 134 125 115 102 97 93 94 102 131 195 254 273 280 280 283 284 286 290 293
17 21 7 351 5 35 75 84 75 68 75 211 168 169 134 132 131 124 124 116 117 116 118 109 100 95 97 88 80 82 64 56 15 326 315 306 298 298 297 299 303 305 302
57 82 80 88 90 88 82 87 89 79 83 85 98 110 109 113 116 118 116 109 106 111 105 106 108 111 112 120 125 122 117 2 302 307 312 311 307 306 309 313 314 310 305
77 98 104 104 108 113 110 109 110 106 98 99 93 97 100 99 97 101 104 107 104 100 102 106 109 112 115 133 152 178 283 304 310 317 319 322 322 317 312 309 303 302 298
85 88 96 97 101 105 106 114 105 106 107 101 101 95 99 104 106 101 99 94 95 98 104 110 117 124 136 154 170 312 327 324 329 324 307 302 299 303 303 298 299 300 302
99 102 103 103 106 107 110 109 108 108 103 98 94 96 101 105 99 95 93 98 101 107 108 113 123 131 149 142 298 298 286 283 285 291 294 300 299 300 300 306 312 317 318
101 105 105 104 102 104 108 107 109 109 107 103 99 93 88 88 94 99 103 108 115 117 113 104 101 116 257 271 266 279 288 295 299 298 294 287 295 319 318 319 320 319 313
100 102 103 101 103 104 103 105 105 103 103 104 104 102 95 91 92 93 97 100 106 123 138 162 184 263 306 316 325 325 323 299 290 293 310 321 324 320 319 314 312 312 318
93 95 95 94 96 100 100 100 99 98 100 102 98 93 90 94 97 96 90 79 61 65 79 127 81 289 4 333 335 335 309 309 322 326 321 323 322 317 305 312 316 317 318
81 84 87 91 95 93 93 91 87 87 86 82 80 83 81 72 65 67 74 81 71 34 29 18 356 357 353 352 342 324 319 331 324 318 326 326 325 321 325 327 333 335 327
74 76 77 78 78 79 81 84 88 92 88 88 90 85 80 78 54 38 29 43 36 20 6 353 351 344 349 335 326 337 334 324 325 323 323 324 330 333 334 342 332 310 304
75 79 84 88 89 90 92 100 103 103 104 107 103 100 112 92 100 355 10 22 1 350 351 342 338 340 338 327 337 328 322 322 323 324 325 327 327 327 326 310 311 319 327
Height
1420 1424 1429 1434 1439 1443 1447 1451 1456 1461 1465 1468 1473 1479 1484 1487 1491 1495 1498 1502 1504 1506 1508 1511 1513 1515 1516 1517 1518 1518 1518 1518 1513 1511 1512 1512 1511 1512 1514 1516 1516 1516 1519
1417 1419 1423 1428 1433 1436 1439 1445 1449 1451 1457 1462 1468 1473 1477 1480 1483 1486 1489 1493 1496 1498 1500 1504 1504 1507 1507 1508 1508 1510 1509 1508 1507 1504 1501 1502 1501 1504 1505 1508 1508 1509 1511
1415 1416 1418 1422 1425 1428 1433 1437 1441 1445 1449 1454 1460 1463 1466 1470 1474 1477 1480 1484 1486 1488 1491 1494 1495 1498 1498 1498 1499 1500 1499 1499 1498 1496 1493 1493 1494 1495 1496 1499 1500 1501 1502
1410 1412 1412 1414 1418 1423 1428 1432 1436 1437 1441 1445 1449 1453 1458 1462 1464 1467 1471 1474 1476 1479 1482 1484 1487 1488 1488 1488 1489 1490 1490 1489 1489 1487 1486 1484 1485 1485 1487 1487 1488 1490 1491
1402 1405 1406 1409 1412 1417 1421 1423 1428 1432 1433 1437 1441 1444 1449 1452 1455 1458 1461 1463 1466 1468 1471 1473 1475 1477 1477 1476 1479 1478 1479 1478 1478 1476 1474 1475 1475 1476 1475 1475 1477 1480 1482
1395 1396 1402 1404 1406 1407 1410 1414 1418 1421 1425 1429 1431 1434 1437 1439 1442 1446 1450 1453 1456 1459 1460 1462 1463 1464 1465 1467 1468 1468 1469 1467 1464 1466 1466 1463 1462 1462 1464 1464 1466 1470 1475
1388 1390 1394 1397 1398 1399 1403 1407 1407 1411 1416 1417 1420 1424 1425 1428 1431 1435 1440 1445 1448 1450 1451 1453 1453 1452 1454 1457 1458 1459 1458 1456 1454 1455 1454 1452 1450 1451 1452 1457 1459 1462 1466
1383 1384 1386 1389 1390 1394 1395 1396 1399 1402 1404 1408 1411 1415 1418 1419 1422 1426 1431 1436 1439 1440 1442 1443 1443 1443 1445 1448 1450 1449 1446 1444 1443 1443 1443 1442 1445 1446 1450 1453 1458 1458 1459
1377 1377 1379 1382 1385 1388 1390 1388 1391 1395 1397 1399 1403 1406 1408 1410 1415 1417 1420 1423 1427 1428 1428 1429 1431 1431 1433 1434 1436 1435 1433 1432 1430 1432 1435 1437 1439 1441 1444 1449 1447 1456 1461
1375 1375 1372 1375 1376 1379 1380 1384 1387 1390 1391 1394 1397 1398 1398 1401 1401 1405 1409 1410 1413 1415 1417 1417 1417 1419 1420 1421 1422 1423 1425 1427 1426 1431 1434 1432 1438 1439 1439 1445 1447 1451 1454
1367 1367 1368 1366 1367 1371 1372 1375 1377 1381 1383 1382 1385 1387 1390 1393 1393 1395 1398 1400 1401 1402 1404 1404 1404 1406 1408 1410 1412 1415 1418 1419 1423 1425 1429 1432 1436 1437 1443 1445 1447 1453 1453
1367 1365 1365 1362 1364 1366 1367 1368 1367 1369 1373 1374 1377 1379 1381 1383 1385 1387 1389 1388 1390 1393 1394 1395 1397 1398 1401 1405 1407 1410 1413 1418 1420 1422 1426 1432 1437 1438 1441 1438 1441 1446 1447
1364 1362 1361 1359 1360 1359 1359 1361 1363 1365 1369 1370 1373 1376 1377 1376 1375 1376 1379 1379 1375 1381 1386 1389 1392 1396 1399 1404 1409 1411 1414 1416 1420 1424 1427 1429 1432 1434 1433 1436 1439 1439 1440
1363 1363 1361 1359 1358 1359 1357 1359 1360 1360 1361 1361 1360 1364 1366 1372 1373 1367 1369 1372 1366 1373 1377 1385 1395 1400 1406 1408 1410 1414 1416 1416 1420 1424 1428 1430 1431 1432 1432 1432 1434 1434 1434
1361 1363 1363 1360 1357 1355 1350 1355 1355 1356 1356 1353 1354 1360 1358 1358 1375 1363 1375 1373 1370 1377 1383 1387 1394 1398 1408 1411 1413 1417 1417 1417 1421 1424 1426 1429 1429 1430 1431 1432 1432 1430 1428
1365 1362 1363 1363 1363 1357 1357 1355 1356 1356 1356 1362 1354 1353 1363 1366 1369 1373 1380 1379 1380 1387 1385 1395 1396 1400 1409 1416 1417 1417 1419 1419 1421 1423 1424 1426 1426 1426 1425 1426 1426 1426 1425
1366 1363 1363 1361 1363 1365 1360 1358 1358 1366 1367 1367 1378 1359 1368 1369 1374 1381 1385 1385 1386 1390 1395 1397 1403 1406 1412 1419 1422 1421 1421 1421 1422 1423 1424 1424 1423 1423 1422 1422 1422 1421 1421
1370 1367 1366 1364 1364 1366 1365 1367 1365 1368 1377 1376 1383 1371 1375 1383 1386 1388 1391 1390 1393 1395 1397 1401 1405 1411 1414 1418 1420 1421 1421 1421 1421 1421 1421 1421 1420 1419 1418 1419 1419 1417 1416
1373 1373 1372 1372 1374 1374 1366 1381 1370 1378 1385 1384 1387 1389 1383 1387 1388 1391 1393 1395 1399 1402 1404 1406 1409 1411 1415 1418 1418 1419 1418 1419 1419 1419 1418 1418 1419 1417 1415 1416 1415 1414 1412
1377 1378 1379 1379 1379 1380 1379 1382 1379 1383 1387 1387 1390 1390 1392 1393 1393 1396 1398 1402 1404 1409 1407 1409 1413 1413 1416 1417 1417 1417 1417 1417 1417 1417 1416 1415 1414 1413 1414 1412 1410 1408 1408
1384 1386 1384 1385 1387 1387 1388 1388 1388 1389 1389 1393 1397 1398 1396 1397 1400 1402 1403 1407 1408 1410 1411 1410 1412 1413 1413 1414 1415 1415 1415 1414 1414 1414 1413 1412 1411 1408 1408 1408 1407 1405 1404
1392 1391 1391 1392 1393 1394 1393 1394 1395 1395 1395 1399 1400 1400 1400 1401 1404 1406 1408 1408 1410 1411 1411 1411 1411 1411 1410 1412 1412 1412 1412 1413 1411 1411 1409 1407 1406 1407 1405 1404 1402 1401 1401
1397 1396 1397 1397 1399 1398 1397 1399 1399 1398 1402 1404 1404 1404 1405 1406 1408 1409 1408 1409 1410 1411 1413 1412 1410 1410 1410 1410 1409 1409 1410 1409 1407 1406 1407 1405 1404 1402 1401 1399 1397 1397 1397
1402 1402 1401 1402 1404 1403 1404 1404 1403 1406 1408 1407 1407 1409 1410 1410 1410 1408 1409 1410 1411 1411 1411 1411 1411 1409 1408 1407 1408 1408 1408 1407 1405 1406 1403 1402 1401 1399 1397 1395 1395 1394 1394
1407 1406 1406 1406 1407 1406 1405 1406 1408 1409 1409 1409 1410 1411 1411 1411 1410 1411 1411 1411 1412 1411 1412 1412 1408 1408 1406 1406 1406 1406 1405 1404 1402 1401 1399 1399 1398 1396 1394 1394 1394 1394 1391
1410 1410 1410 1410 1411 1410 1410 1413 1413 1412 1412 1412 1413 1413 1413 1413 1413 1412 1411 1412 1411 1410 1409 1408 1408 1406 1405 1405 1404 1403 1402 1401 1399 1398 1397 1396 1395 1394 1392 1391 1390 1390 1386